Location: Devore Heights
(34.2372°N, 117.4156°W)
Time: 19:09:42
(UTC+00:00)

S-56A Canister/Altair - Pass Details

Date: 17 September 2024
Orbit: 636 x 2487 km, 38.9° (Epoch: 14 October)

Event Time Altitude Azimuth Distance (km) Brightness Sun altitude
Rises 00:39:55 0° 228° (SW) 2,932 11.5 14.4°
Reaches altitude 10° 00:42:06 10° 222° (SW) 2,077 10.7 14.0°
Maximum altitude 00:46:35 48° 148° (SSE) 981 8.1 13.1°
Drops below altitude 10° 00:52:25 10° 75° (ENE) 2,700 9.8 11.9°
Sets 00:55:37 0° 70° (ENE) 3,922 10.5 11.2°
